Location: Clyde
(45.1830°S, 169.3170°E)
Time: 07:46:29
(UTC+12:00)

Cosmos 2237 Rocket - Pass Details

Date: 14 May 2021
Orbit: 836 x 848 km, 71.0° (Epoch: 20 June)

Event Time Altitude Azimuth Distance (km) Brightness Sun altitude
Rises 18:50:07 0° 347° (NNW) 3,391 5.7 -15.0°
Reaches altitude 10° 18:52:34 10° 349° (N) 2,466 4.9 -15.5°
Maximum altitude 18:58:09 63° 69° (ENE) 950 2.2 -16.4°
Enters shadow 19:02:55 15° 147° (SSE) 2,167 3.9 -17.3°
